Location: Phoenix
(33.4480°N, 112.0730°W)
Time: 09:46:53
(UTC-07:00)

Cosmos 1470 Rocket - Visible Passes

Search period start: 29 July 2014 00:00
Search period end: 08 August 2014 00:00
Orbit: 606 x 636 km, 82.5° (Epoch: 28 July)

Date Brightness Start Highest point End Pass type
(mag) Time Alt. Az. Time Alt. Az. Time Alt. Az.
29 Jul 5.4 02:36:57 10° NNE 02:40:35 25° ENE 02:41:05 25° E visible
29 Jul 5.0 04:15:05 10° NW 04:18:14 20° W 04:18:14 20° W visible
30 Jul 4.3 02:54:18 10° N 02:58:13 49° ENE 02:58:13 49° ENE visible
31 Jul 4.1 03:12:05 10° N 03:15:24 50° NNW 03:15:24 50° NNW visible
01 Aug 6.3 01:53:50 10° NE 01:55:29 14° ENE 01:55:29 14° ENE visible
01 Aug 4.9 03:30:15 10° NNW 03:32:38 26° NW 03:32:38 26° NW visible
02 Aug 5.8 02:10:32 10° NNE 02:12:45 23° NE 02:12:45 23° NE visible
02 Aug 5.7 03:49:01 10° NW 03:49:55 13° NW 03:49:55 13° NW visible
03 Aug 5.5 02:27:58 10° N 02:30:04 27° NNE 02:30:04 27° NNE visible
04 Aug 5.6 02:45:48 10° NNW 02:47:25 22° NNW 02:47:25 22° NNW visible
05 Aug 6.6 01:27:15 10° NE 01:27:38 11° NE 01:27:38 11° NE visible
05 Aug 5.9 03:04:03 10° NNW 03:04:47 14° NW 03:04:47 14° NW visible
06 Aug 6.4 01:44:07 10° NNE 01:45:02 15° NNE 01:45:02 15° NNE visible
07 Aug 6.3 02:01:37 10° N 02:02:28 15° N 02:02:28 15° N visible
